{"data":{"norad_id":55581,"intl_designator":"2023-020N","name":"STARLINK-5753","alt_names":[],"object_type":"PAYLOAD","status":"ACTIVE","operator":null,"country":"US","launch_date":"2023-02-12","launch_site_code":"AFETR","launch_vehicle":null,"mission":null,"orbit_class":"UNKNOWN","rcs_meters":null,"size_class":null,"mass_kg":null,"dimensions":null,"purposes":["comms"],"wikipedia_slug":null,"has_3d_model":false,"image_url":null,"decayed_at":null,"tle_current":{"epoch":"2026-09-20T13:14:40.627104Z","epoch_age_seconds":95925,"freshness":"FRESH","line1":"1 55581U 23020N   26263.55185911 -.00000353  00000+0 -32924-5 0  9992","line2":"2 55581  43.0043 351.6137 0001120 272.9542  87.1181 15.27576493198633","mean_motion":15.27576493,"eccentricity":0.000112,"inclination_deg":43.0043,"raan_deg":351.6137,"arg_perigee_deg":272.9542,"mean_anomaly_deg":87.1181,"bstar":-3.2924e-6,"rev_number":19863,"period_min":94.266965130629,"perigee_km":482.29114326048,"apogee_km":483.82805129827,"semimajor_km":6861.1965972794,"source":"CELESTRAK","updated_at":"2026-09-21T09:00:33.265327Z"}}}